Flag for France Weather past 2 weeks in Brest, France

Now
57 °F

Passing clouds.


Feels Like: 57 °F
Forecast: 51 / 67 °F
Wind: 2 mph from Northwest

Location: Brest Airport

Current Time: Aug 22, 2014 at 11:49:49 PM

Latest Report: Aug 22, 2014 at 11:00 PM


Visibility: N/A

Pressure: 30.04 "Hg

Humidity: 88%

Dew point: 54 °F

Location of BrestLocation

Historic Weather in Brest — Graph

°F

Brest temperature yesterday

Maximum temperature yesterday: 66 °F (at 3:30 PM)
Minimum temperature yesterday: 46 °F (at 1:30 AM)
Average temperature yesterday: 57 °F

Past Weeks' High & Low Weather Summary

 TemperatureHumidityPressure
High68 °F (Aug 9, 4:00 PM)100% (Aug 8, 3:30 PM)30.30 "Hg (Aug 8, 3:30 PM)
Low46 °F (Aug 20, 4:30 AM)46% (Aug 20, 4:00 PM)29.45 "Hg (Aug 10, 6:30 AM)
Average59 °F78%29.97 "Hg
* Reported Aug 7 10:00 PM — Aug 22 10:30 PM, Brest, Weather by CustomWeather, © 2014

Note: Actual official high and low records may vary slightly from our data, if they occured in-between our weather recording intervals... More about our weather records

Advertising

Brest weather history for previous 24 hours

 ConditionsComfort  
Time TempWeatherWind HumidityBarometerVisibility
10:30 PM
Aug 22
57 °FPassing clouds.3 mph82%30.04 "HgN/A
10:00 PM59 °FPartly sunny.3 mph82%30.04 "HgN/A
9:30 PM59 °FPartly sunny.3 mph77%30.04 "HgN/A
9:00 PM59 °FBroken clouds.5 mph77%30.01 "HgN/A
8:30 PM61 °FBroken clouds.6 mph72%30.01 "HgN/A
8:00 PM61 °FBroken clouds.7 mph72%30.01 "HgN/A
7:30 PM61 °FBroken clouds.7 mph72%30.01 "HgN/A
7:00 PM63 °FBroken clouds.9 mph68%30.01 "HgN/A
6:30 PM63 °FBroken clouds.8 mph73%30.01 "HgN/A
6:00 PM63 °FBroken clouds.9 mph68%30.01 "HgN/A
5:30 PM64 °FBroken clouds.12 mph64%30.01 "HgN/A
5:00 PM64 °FBroken clouds.9 mph64%30.01 "HgN/A
4:30 PM63 °FBroken clouds.12 mph68%30.01 "HgN/A
4:00 PM64 °FBroken clouds.12 mph64%30.01 "HgN/A
3:30 PM64 °FPartly sunny.12 mph64%30.01 "HgN/A
3:00 PM64 °FPartly sunny.12 mph64%30.01 "HgN/A
2:30 PM66 °FPartly sunny.14 mph64%30.01 "HgN/A
2:00 PM64 °FPartly sunny.13 mph60%30.01 "HgN/A
1:30 PM66 °FBroken clouds.14 mph56%30.01 "HgN/A
1:00 PM64 °FScattered clouds.10 mph64%30.01 "HgN/A
12:30 PM64 °FScattered showers. Partly sunny.13 mph64%30.01 "HgN/A
12:00 PM64 °FPartly sunny.13 mph64%29.98 "HgN/A
11:30 AM63 °FScattered clouds.10 mph68%29.98 "HgN/A
11:00 AM61 °FScattered clouds.6 mph83%29.98 "HgN/A
10:30 AM59 °FRain showers. Broken clouds.7 mph82%29.98 "HgN/A
10:00 AM57 °FBroken clouds.6 mph82%29.98 "HgN/A
9:30 AM57 °FBroken clouds.8 mph88%29.98 "HgN/A
9:00 AM57 °FBroken clouds.6 mph88%29.98 "HgN/A
8:30 AM57 °FBroken clouds.3 mph88%29.98 "HgN/A
8:00 AM57 °FMostly cloudy.5 mph82%29.98 "HgN/A
7:30 AM57 °FMostly cloudy.3 mph82%29.98 "HgN/A
7:00 AM57 °FPartly cloudy.7 mph82%29.95 "HgN/A
6:30 AM57 °FPartly cloudy.7 mph82%29.98 "HgN/A
6:00 AM57 °FPartly cloudy.6 mph82%29.98 "HgN/A
5:30 AM57 °FPassing clouds.7 mph82%29.98 "HgN/A
5:00 AM57 °FPartly cloudy.6 mph82%29.98 "HgN/A
4:30 AM57 °FPartly cloudy.5 mph82%29.98 "HgN/A
4:00 AM57 °FPartly cloudy.3 mph88%29.98 "HgN/A
3:30 AM57 °FPartly cloudy.6 mph88%29.98 "HgN/A
3:00 AM57 °FPartly cloudy.5 mph88%30.01 "HgN/A
2:34 AM55 °FPartly cloudy.6 mph88%30.01 "HgN/A
2:00 AM55 °FPartly cloudy.8 mph88%30.01 "HgN/A
1:30 AM55 °FPartly cloudy.10 mph88%30.01 "HgN/A
1:00 AM57 °FPartly cloudy.17 mph77%30.04 "HgN/A
12:30 AM57 °FPartly cloudy.6 mph77%30.04 "HgN/A
12:00 AM57 °FPassing clouds.7 mph77%30.04 "HgN/A
11:30 PM
Aug 21
57 °FPassing clouds.7 mph72%30.04 "HgN/A
11:00 PM57 °FPassing clouds.7 mph67%30.04 "HgN/A
Weather by CustomWeather, © 2014

See weather overviewHow to use our weather pages